Flag for U.S.A. Weather past 2 weeks in Orange, California, U.S.A.

Now
61 °F

Sunny.


Feels Like: 61 °F
Forecast: 51 / 74 °F
Wind: 3 mph from Northeast

Location: John Wayne Airport-Orange County Airport

Current Time: Feb 1, 2015 at 9:21:51 AM

Latest Report: Feb 1, 2015 at 8:53 AM


Visibility: 10 mi

Pressure: 30.10 "Hg

Humidity: 67%

Dew point: 50 °F

Location of OrangeLocation

Historic Weather in Orange — Graph

°F

Orange temperature yesterday

Maximum temperature yesterday: 69 °F (at 11:53 AM)
Minimum temperature yesterday: 58 °F (at 5:53 AM)
Average temperature yesterday: 63 °F

Past Weeks' High & Low Weather Summary

 TemperatureHumidityPressure
High84 °F (Jan 25, 12:53 PM)90% (Jan 20, 1:53 AM)30.24 "Hg (Jan 20, 1:53 AM)
Low49 °F (Jan 23, 6:53 AM)5% (Jan 23, 1:53 PM)29.83 "Hg (Jan 31, 3:53 AM)
Average65 °F54%30.06 "Hg
* Reported Jan 17 7:53 AM — Feb 1 7:53 AM, Orange, Weather by CustomWeather, © 2014

Note: Actual official high and low records may vary slightly from our data, if they occured in-between our weather recording intervals... More about our weather records

Advertising

Orange weather history for previous 24 hours

 ConditionsComfort  
Time TempWeatherWind HumidityBarometerVisibility
7:53 AM
Feb 1
57 °FSunny.No wind74%30.09 "Hg8 mi
6:53 AM54 °FSunny.No wind80%30.07 "Hg7 mi
5:53 AM54 °FClear.3 mph80%30.04 "Hg8 mi
4:53 AM55 °FClear.No wind83%30.03 "Hg8 mi
3:53 AM56 °FClear.No wind81%30.02 "Hg8 mi
2:53 AM57 °FClear.No wind81%30.01 "Hg8 mi
1:53 AM58 °FClear.No wind78%30.01 "Hg9 mi
12:53 AM58 °FClear.6 mph81%30.01 "Hg9 mi
11:53 PM
Jan 31
59 °FClear.No wind81%29.99 "Hg8 mi
10:53 PM60 °FClear.No wind78%29.98 "Hg9 mi
9:53 PM61 °FClear.6 mph75%29.98 "Hg10 mi
8:53 PM62 °FClear.No wind75%29.97 "Hg10 mi
7:53 PM63 °FClear.3 mph75%29.95 "Hg10 mi
6:53 PM64 °FClear.No wind73%29.93 "Hg10 mi
5:53 PM64 °FPassing clouds.No wind73%29.92 "Hg10 mi
4:53 PM66 °FScattered clouds.7 mph63%29.89 "Hg10 mi
3:53 PM68 °FScattered clouds.9 mph55%29.88 "Hg10 mi
2:53 PM68 °FScattered clouds.6 mph57%29.89 "Hg10 mi
1:53 PM68 °FScattered clouds.7 mph57%29.88 "Hg10 mi
12:53 PM69 °FScattered clouds.10 mph57%29.88 "Hg10 mi
11:53 AM69 °FScattered clouds.6 mph57%29.90 "Hg10 mi
10:53 AM67 °FPassing clouds.No wind59%29.92 "Hg10 mi
9:53 AM64 °FPartly sunny.No wind68%29.92 "Hg10 mi
Weather by CustomWeather, © 2014

See weather overviewHow to use our weather pages